[[{"header":{"parameterUnit":"m.s-1","parameterCategory":1,"la1":30.2992,"la2":30.254,"lo1":-89.0895,"lo2":-89.0443,"dy":0.0025,"dx":0.0025,"nx":19,"ny":19,"refTime":"2026-04-04T03:00:00:Z","depth":0,"parameterNumber":2,"parameterNumberName":"U-component_of_WINDS"},"data":[0,0,0,-1.5456,-1.5456,-1.5497,-1.5497,-1.5545,-1.5545,0,0,0,0,0,0,0,0,0,0,0,-1.5439,-1.5439,-1.5455,-1.5456,-1.5497,-1.5497,-1.5545,-1.5545,0,0,0,0,0,0,0,0,0,0,0,-1.5439,-1.5439,-1.5439,-1.5456,-1.5497,-1.5497,-1.5545,-1.5516,0,0,0,0,0,0,0,0,0,0,-1.5477,-1.5457,-1.5439,-1.5439,-1.5457,-1.5497,-1.5497,-1.5515,-1.5518,-1.5524,0,-1.5526,0,-1.5536,-1.5548,-1.5548,0,0,0,-1.546,-1.5455,-1.5469,-1.5439,-1.5457,-1.5497,-1.548,-1.5516,-1.552,-1.5528,-1.5527,-1.5529,-1.5537,-1.5548,-1.5548,-1.5565,-1.5565,0,0,-1.5458,-1.5444,-1.5467,-1.5471,-1.5463,-1.5478,-1.5481,-1.5519,-1.5518,-1.5527,-1.553,-1.5538,-1.5548,-1.5549,-1.5566,-1.5565,0,0,0,-1.5449,-1.5443,-1.5457,-1.5469,-1.5477,-1.548,-1.5483,-1.5516,-1.5522,-1.5531,-1.5538,-1.5549,-1.5549,-1.5566,-1.5566,-1.5546,0,0,0,-1.5448,-1.5437,-1.5456,-1.5448,-1.5476,-1.5497,-1.5479,-1.5519,-1.5524,-1.5538,-1.5549,-1.5549,-1.5566,-1.5566,-1.5547,-1.5539,0,0,0,-1.5438,-1.5436,-1.544,-1.5447,-1.5464,-1.5496,-1.5504,-1.552,-1.5528,-1.5548,-1.555,-1.5566,-1.5566,-1.5547,-1.554,-1.5539,0,0,0,-1.5424,-1.5424,-1.544,-1.5443,-1.5463,-1.5484,-1.5504,-1.5521,-1.5535,-1.5549,-1.5566,-1.5566,-1.5548,-1.5541,-1.5539,-1.5534,-1.553,0,0,-1.5417,-1.5423,-1.5426,-1.5441,-1.5455,-1.5479,-1.549,-1.5518,-1.5533,-1.5554,-1.5555,-1.5546,-1.554,-1.5539,-1.5518,-1.5515,0,0,0,-1.5419,-1.5421,-1.5427,-1.5439,-1.5459,-1.5475,-1.5502,-1.5512,-1.553,-1.5541,-1.5546,-1.5543,-1.5543,-1.5541,-1.5538,-1.5539,-1.5564,-1.5564,-1.5564,-1.5389,-1.5407,-1.5413,-1.5435,-1.5447,-1.5474,-1.5485,-1.5504,-1.552,-1.5521,-1.5527,-1.5512,-1.5509,-1.5508,-1.5508,-1.5527,-1.5527,-1.5527,-1.5527,-1.538,-1.5384,-1.5404,-1.5416,-1.5436,-1.5447,-1.5473,-1.5484,-1.5498,-1.5509,-1.551,-1.552,-1.5504,-1.5505,-1.5525,-1.5525,-1.5526,-1.5526,-1.5526,-1.5361,-1.5367,-1.5378,-1.5396,-1.5409,-1.5433,-1.5444,-1.5462,-1.548,-1.548,-1.5488,-1.5488,-1.549,-1.5483,-1.5483,-1.5483,-1.5483,-1.5483,-1.5483,-1.5338,-1.5351,-1.5357,-1.5377,-1.5386,-1.5402,-1.5428,-1.5439,-1.5455,-1.5467,-1.5468,-1.5483,-1.5499,-1.5502,-1.5482,-1.5482,-1.5482,-1.5482,-1.5482,-1.532,-1.5326,-1.5336,-1.5345,-1.537,-1.538,-1.5403,-1.5423,-1.5434,-1.5439,-1.5455,-1.5464,-1.5472,-1.5474,-1.5477,-1.5451,-1.5451,-1.5451,-1.5451,-1.5303,-1.5309,-1.5322,-1.5336,-1.5351,-1.5372,-1.5384,-1.5404,-1.5427,-1.5435,-1.5442,-1.5447,-1.5449,-1.5456,-1.5458,-1.5461,-1.5432,-1.5432,-1.5432,-1.5293,-1.53,-1.5305,-1.5326,-1.5346,-1.5363,-1.5374,-1.539,-1.5418,-1.5432,-1.5442,-1.5443,-1.5452,-1.5454,-1.5467,-1.5471,-1.5476,0,0]},{"header":{"parameterUnit":"m.s-1","parameterCategory":1,"la1":30.2992,"la2":30.254,"lo1":-89.0895,"lo2":-89.0443,"dy":0.0025,"dx":0.0025,"nx":19,"ny":19,"refTime":"2026-04-04T03:00:00:Z","depth":0,"parameterNumber":3,"parameterNumberName":"V-component_of_WINDS"},"data":[0,0,0,4.2057,4.206,4.2189,4.2189,4.2349,4.235,0,0,0,0,0,0,0,0,0,0,0,4.2018,4.2019,4.2057,4.206,4.2189,4.219,4.2348,4.235,0,0,0,0,0,0,0,0,0,0,0,4.2018,4.2019,4.202,4.2061,4.2189,4.219,4.2348,4.2252,0,0,0,0,0,0,0,0,0,0,4.2128,4.2091,4.2019,4.202,4.2062,4.2189,4.219,4.2248,4.2258,4.2289,0,4.2317,0,4.2337,4.2361,4.2361,0,0,0,4.2061,4.2082,4.2118,4.202,4.2063,4.2189,4.2131,4.2254,4.2266,4.2303,4.232,4.2326,4.2339,4.2362,4.2362,4.2544,4.2545,0,0,4.2053,4.204,4.211,4.2126,4.2108,4.2127,4.2135,4.2261,4.2278,4.232,4.2329,4.2342,4.2363,4.2364,4.2543,4.2544,0,0,0,4.2033,4.2035,4.2068,4.212,4.2143,4.2131,4.214,4.2272,4.2284,4.2331,4.2344,4.2364,4.2365,4.2543,4.2544,4.2574,0,0,0,4.2029,4.2023,4.2065,4.2058,4.2141,4.221,4.2148,4.2275,4.229,4.2343,4.2364,4.2367,4.2542,4.2543,4.2571,4.259,0,0,0,4.201,4.2021,4.2039,4.2057,4.2112,4.2208,4.2227,4.2279,4.2298,4.2361,4.2367,4.2541,4.2543,4.2569,4.2585,4.2635,0,0,0,4.1985,4.2061,4.2039,4.2129,4.2111,4.2226,4.2227,4.2313,4.2371,4.2364,4.2542,4.2544,4.2568,4.2583,4.2632,4.2674,4.269,0,0,4.2073,4.2071,4.2126,4.211,4.2226,4.2208,4.2328,4.2392,4.2409,4.2498,4.2502,4.2572,4.2585,4.2634,4.2785,4.2798,0,0,0,4.2149,4.2188,4.2222,4.2278,4.2332,4.2379,4.2427,4.2451,4.2528,4.2453,4.2603,4.2611,4.2641,4.2661,4.2672,4.2698,4.2553,4.2552,4.2552,4.2252,4.2274,4.2365,4.2402,4.2457,4.2508,4.2554,4.2595,4.2597,4.2632,4.2658,4.2748,4.2772,4.278,4.2807,4.2682,4.2682,4.2682,4.2683,4.2384,4.2443,4.2448,4.2539,4.256,4.2636,4.2688,4.2688,4.276,4.2729,4.2756,4.272,4.2794,4.2819,4.2685,4.2685,4.2684,4.2684,4.2684,4.2454,4.2486,4.2517,4.2603,4.2667,4.2701,4.2772,4.2788,4.2803,4.2829,4.286,4.2859,4.2861,4.2843,4.2843,4.2843,4.2844,4.2844,4.2844,4.2515,4.2549,4.2608,4.2674,4.2714,4.2768,4.2822,4.2861,4.2908,4.2913,4.2914,4.2913,4.2798,4.2768,4.2849,4.2848,4.2848,4.2847,4.2847,4.264,4.2616,4.2707,4.2748,4.2827,4.289,4.2911,4.2989,4.3024,4.3058,4.3053,4.2965,4.2963,4.2954,4.293,4.3048,4.3048,4.3048,4.3048,4.27,4.2702,4.2801,4.2865,4.2929,4.2958,4.306,4.3103,4.3143,4.3165,4.3151,4.312,4.3111,4.3114,4.3102,4.308,4.3234,4.3234,4.3234,4.2779,4.2788,4.2873,4.2915,4.2979,4.3033,4.3131,4.3202,4.3242,4.3242,4.3184,4.3176,4.3127,4.311,4.3107,4.3088,4.3047,0,0]}]]